Regional Weather Roundup
Issued by NWS

Home | Current Version | Previous Version | Text Only | Print | Product List | Glossary On
Versions: 1 2 3 4 5 6 7 8 9 10 11 12 13 14 15 16 17 18 19 20 21 22 23 24 25 26 27
000
ASUS45 KBOU 232107
RWRCO

WEATHER ROUNDUP FOR COLORADO
NATIONAL WEATHER SERVICE DENVER/BOULDER CO
300 PM MDT TUE AUG 23 2016

NOTE: "FAIR" INDICATES FEW OR NO CLOUDS BELOW 12000 FEET WITH NO
SIGNIFICANT WEATHER AND/OR OBSTRUCTIONS TO VISIBILITY.

COZ001>005-013-030-031-232200-
...NORTHWEST COLORADO...

CITY           SKY/WX    TMP DP  RH WIND       PRES   REMARKS
CRAIG          FAIR      80  30  16 S6        30.15F
HAYDEN         FAIR      75  32  20 SW3       30.18F
MEEKER         FAIR      78  35  21 SW6       30.16F
MOUNT WERNER   NOT AVBL
STEAMBOAT SPGS FAIR      73  33  23 SE5       30.21F
WALDEN         FAIR      70  25  18 NE5G21    30.29S
$$

COZ006>008-011-232200-
...WEST CENTRAL VALLEYS...

CITY           SKY/WX    TMP DP  RH WIND       PRES   REMARKS
GRAND JUNCTION FAIR      78  48  34 NW7       30.11F
MONTROSE       FAIR      70  46  42 SE15      30.21S
EAGLE          SUNNY     77  36  22 W8        30.20F
RIFLE          FAIR      76  46  34 CALM      30.13F
DELTA          FAIR      80  44  27 S5        30.15F
NUCLA          CLOUDY    68  50  52 SE17      30.25R
$$

COZ017>023-064>068-232200-
...SOUTHWEST COLORADO...

CITY           SKY/WX    TMP DP  RH WIND       PRES   REMARKS
DURANGO        LGT RAIN  62  48  60 N16       30.26R
CORTEZ         TSTM      60  52  74 N7G21     30.22R VSB 3/4
PAGOSA SPRINGS RAIN      56  52  85 NE8       30.32S
TELLURIDE      RAIN      49  47  93 CALM      30.46R
WOLF CREEK PAS TSTM      36  36 100 N7        30.60R
$$

COZ009-010-012-014-032>034-037-058>063-232200-
...CENTRAL COLORADO...

CITY           SKY/WX    TMP DP  RH WIND       PRES   REMARKS
ASPEN          FAIR      74  35  24 N7        30.25F
BUENA VISTA    CLOUDY    68  32  26 W15       30.26S
COPPER MTN     PTSUNNY   59  28  31 N3        30.56F
BERTHOUD PASS  CLOUDY    46  32  57 NE5       30.60S
COTTONWOOD PAS CLOUDY    61  32  33 CALM      30.41S THUNDER
GUNNISON       FAIR      64  46  52 SW5       30.30F
KREMMLING      FAIR      73  28  19 W7        30.24F
LEADVILLE      FAIR      64  27  24 NW8       30.38F
MONARCH PASS   TSTM      45  37  76 N12       30.64S
SALIDA         FAIR      77  35  22 N9        30.29S
SUNLIGHT       CLOUDY    52  43  71 N5        30.52S
WILKERSON PASS NOT AVBL
$$

COZ069>075-232200-
...SAN LUIS VALLEY/SANGRE DE CRISTO MOUNTAINS...

CITY           SKY/WX    TMP DP  RH WIND       PRES   REMARKS
ALAMOSA        FAIR      65  44  46 S12       30.27S
LA VETA PASS   FAIR      64  36  34 S9G18     30.42F
SAGUACHE       FAIR      70  41  35 S10       30.26S THUNDER
$$

COZ035-036-038>040-232200-
...NORTHERN COLORADO FRONT RANGE...

CITY           SKY/WX    TMP DP  RH WIND       PRES   REMARKS
DENVER INTL AP PTSUNNY   84  33  16 N6        30.07S
DMNS CITY PARK   N/A     80  35  19 SW10G16   30.07R
AURORA         PTSUNNY   81  34  18 NW6       30.09S
FRONT RANGE AP NOT AVBL
ERIE MUNI ARPT FAIR      83  28  13 NW8G20    30.04F
BOULDER MUN AP FAIR      84  34  16 E3        30.05S
CENTENNIAL     PTSUNNY   76  38  25 SW14G20   30.12R
BROOMFIELD     PTSUNNY   82  32  16 S3        30.09F
FORT COLLINS   FAIR      84  34  16 S8        30.00F
LONGMONT       FAIR      87  35  15 S7        30.05S
$$

COZ041-046-047-076>085-087-088-232200-
...PIKES PEAK/PALMER DIVIDE AND SOUTHERN FOOTHILLS...

CITY           SKY/WX    TMP DP  RH WIND       PRES   REMARKS
COLO. SPRINGS  PTSUNNY   78  32  18 SE32G47   30.14R
A. F. ACADEMY  PTSUNNY   75  37  25 S8        30.15R
SCHRIEVER AFB  NOT AVBL
ELLICOTT       NOT AVBL
FALCON         PTSUNNY   75  31  19 E10       30.19S
FORT CARSON    PTSUNNY   68  46  45 N15       30.11F
LIMON          FAIR      88  27  11 NE14G24   30.06S
MONUMENT HILL  CLOUDY    72  30  21 E3        30.22R
TRINIDAD       FAIR      85  35  16 CALM      30.08F
$$

COZ042>045-048>051-090-091-232200-
...NORTHEAST COLORADO...

CITY           SKY/WX    TMP DP  RH WIND       PRES   REMARKS
GREELEY ARPT   FAIR      86  34  15 N9        30.02S
AKRON          FAIR      90  26  10 N18G28    30.00F
BURLINGTON     FAIR      94  19   6 N21G26    29.96F
WRAY           NOT AVBL
STERLING       FAIR      91  30  11 N18G24    29.95S
HOLYOKE        FAIR      95  30  10 NW20G29   29.94S
FORT MORGAN    FAIR      89  22   8 NW10      30.00S
$$

COZ086-089-092>099-232200-
...SOUTHEAST COLORADO...

CITY           SKY/WX    TMP DP  RH WIND       PRES   REMARKS
PUEBLO         FAIR      91  39  16 SE14      29.99F
LA JUNTA       FAIR      95  39  14 NE9       29.96F
LAMAR          FAIR      95  38  13 CALM      29.90F
SPRINGFIELD      N/A     90  48  23 N7        29.98F
$$




USA.gov is the U.S. government's official web portal to all federal, state and local government web resources and services.